GFSGBSN_con_3kmhel_000.txt.gz
Helicity
33 38 39 45 56 59 64 61 65 61 61 72 73 72 81 87 91 100 104 119 135 123 110 126 107 99 47 27 78 106 119 45 52 86 85 68 45 12 -4 31 44 34 29 29 30 31 26
38 40 39 56 65 89 84 78 69 75 84 97 98 109 110 114 106 112 119 123 123 102 92 80 109 107 42 64 73 77 68 2 25 62 57 93 53 43 36 52 31 29 15 15 9 8 6
42 47 48 51 67 83 77 76 93 93 84 88 110 116 121 120 127 128 126 135 111 87 74 114 134 91 55 48 47 36 -4 -43 -13 36 51 66 85 34 22 17 43 10 2 10 -25 -2 -18
52 58 72 83 68 51 56 83 86 93 114 130 133 124 125 145 138 124 130 114 77 78 107 126 125 82 60 57 41 17 29 10 30 -13 37 75 52 18 19 19 30 14 13 14 41 6 8
45 60 80 83 91 94 80 80 93 110 116 120 110 119 132 127 125 117 90 63 73 100 109 122 88 67 64 71 53 60 47 68 73 99 78 48 54 10 35 0 16 35 5 20 34 10 2
43 67 82 98 119 130 111 93 99 101 99 100 100 97 97 103 103 76 59 70 109 94 107 105 43 40 86 83 70 50 52 65 70 69 52 63 34 7 21 11 -7 -7 -5 0 4 -12 -6
47 65 76 103 121 142 130 101 104 101 99 100 96 89 98 111 107 67 47 101 93 107 97 50 78 26 57 76 27 63 79 69 71 72 27 32 26 -3 -4 -12 -20 -21 -18 -15 -7 1 -37
48 57 72 92 113 142 135 107 101 104 97 94 91 96 103 114 98 43 102 66 71 66 90 97 81 56 56 39 52 158 78 49 61 32 9 44 18 -3 1 7 -2 -3 9 5 4 4 -15
58 69 67 83 99 131 126 122 100 96 94 91 94 99 107 92 42 57 80 78 87 45 74 137 112 94 57 46 70 96 61 42 41 41 40 26 23 38 13 12 6 -18 -13 -22 -21 6 27
58 72 71 84 92 119 120 131 114 91 86 83 85 94 99 83 78 102 98 88 92 25 84 120 78 35 27 14 52 19 27 21 40 26 33 51 54 37 26 -4 -15 -20 8 -8 1 33 37
64 61 68 77 94 115 128 139 132 101 83 71 83 91 73 46 19 78 73 66 48 47 94 40 48 -2 27 49 9 135 18 24 44 51 45 25 49 56 39 -2 4 -31 -5 11 29 57 67
68 57 64 71 92 112 130 143 132 104 86 76 69 66 57 75 71 63 58 37 57 127 131 74 44 57 58 88 41 20 50 42 30 64 99 51 40 45 17 -1 13 7 33 57 65 74 96
63 58 62 69 91 107 127 149 134 104 76 69 65 57 44 38 20 18 12 34 140 166 96 101 80 64 72 56 36 33 58 126 76 64 66 50 62 30 34 23 26 46 55 66 83 104 68
65 65 63 73 95 104 118 149 154 126 72 52 44 39 58 17 11 -3 6 92 148 73 100 67 57 87 58 25 29 42 35 68 70 47 50 58 44 39 12 12 1 16 21 44 65 72 58
68 72 68 73 92 111 111 141 168 164 96 50 17 50 34 52 34 9 42 127 70 35 46 58 75 69 48 39 48 45 23 21 31 26 35 34 7 0 6 11 7 0 24 9 43 62 86
61 66 73 74 84 107 102 129 166 169 112 60 36 51 54 68 30 37 62 65 50 35 43 46 57 44 46 43 31 31 10 -5 -1 5 2 17 18 11 -8 17 58 50 27 36 41 53 52
63 60 73 79 79 99 94 107 148 170 125 53 56 77 68 78 51 72 57 44 61 67 44 55 43 40 34 20 21 17 15 3 12 10 24 17 40 10 30 63 64 58 68 74 57 82 103
74 61 66 77 83 93 95 90 121 166 142 63 67 94 87 55 90 88 85 76 64 72 81 48 43 23 15 13 28 34 46 40 23 27 32 19 52 43 37 39 42 60 88 79 77 91 150
78 68 59 67 80 87 97 85 108 145 94 38 75 92 95 64 61 92 79 99 83 65 65 31 25 20 28 37 51 51 56 45 52 45 34 24 47 60 59 82 75 98 86 120 158 161 149
75 67 71 68 69 85 88 92 109 140 81 49 75 104 115 82 91 91 95 89 76 85 66 59 44 37 45 48 55 54 52 48 48 49 82 77 73 81 79 52 52 82 131 166 181 167 171
83 77 71 76 78 85 91 98 131 138 83 48 72 75 86 97 140 105 87 75 70 57 42 45 39 42 27 31 41 60 45 30 39 49 83 111 100 102 103 81 93 88 91 126 197 200 189
83 83 80 81 98 81 100 118 135 137 91 47 56 61 82 103 114 108 108 69 48 42 32 26 32 31 39 39 48 40 41 50 44 68 107 122 128 135 115 71 80 120 136 145 98 108 106
79 75 83 88 93 87 99 128 133 136 68 45 50 71 70 110 95 85 55 54 39 55 66 37 35 46 42 34 27 35 58 63 87 108 123 153 177 196 128 118 84 63 68 56 70 95 158
89 77 81 92 93 88 100 126 130 117 71 36 50 70 78 73 85 67 65 81 82 60 57 52 51 58 30 60 63 78 109 92 71 63 141 216 262 212 177 135 102 58 137 114 136 83 97
91 90 82 80 85 91 96 123 130 124 113 56 61 65 60 68 82 101 101 113 110 100 86 69 70 65 81 85 78 93 99 117 80 124 126 199 224 185 197 189 159 132 43 77 87 92 111
76 91 93 87 85 92 99 114 127 135 146 82 92 71 69 72 40 85 108 94 97 95 106 97 105 118 135 122 127 143 144 134 157 149 206 218 200 210 257 189 135 137 111 95 117 157 209
83 83 91 94 88 88 102 115 123 135 153 96 104 90 87 90 72 109 114 96 106 119 97 96 103 139 153 159 181 190 159 197 174 162 142 135 155 190 192 212 154 107 84 127 167 140 162
84 88 82 87 89 94 101 122 139 139 157 114 108 123 95 96 72 74 83 103 107 112 119 83 147 162 193 213 216 179 224 149 225 167 170 153 149 197 180 189 71 133 111 94 131 181 138
95 91 81 85 96 96 106 120 135 148 166 132 132 134 120 111 70 93 88 79 67 45 92 138 146 159 158 247 213 233 208 266 227 249 217 193 210 190 260 236 221 244 111 133 131 135 146

GFSGBSN_con_3kmhel_003.txt.gz
Helicity
21 20 20 27 31 34 31 27 15 23 27 36 39 44 39 49 65 85 101 135 143 117 145 106 84 53 40 51 69 72 67 70 70 48 86 52 47 13 -13 13 48 27 32 24 20 6 8
25 28 34 40 39 51 55 45 47 46 49 56 48 48 61 69 90 113 137 144 136 139 103 78 52 56 43 21 40 42 13 20 29 33 53 35 52 49 43 52 20 19 4 3 -4 -13 -5
30 35 42 49 56 76 78 71 65 67 70 76 83 78 89 114 148 154 148 150 133 90 74 53 46 54 38 36 4 12 -24 -31 -5 5 25 46 42 9 26 28 38 26 5 -1 17 20 -1
45 46 50 61 72 85 85 84 91 98 102 106 104 116 135 149 132 112 128 119 74 54 51 51 66 38 56 14 3 2 16 -33 -3 10 12 42 16 -6 25 23 40 21 14 10 33 50 28
55 59 58 76 92 86 95 97 97 101 106 114 114 121 120 108 95 119 121 84 56 35 53 86 46 37 45 41 12 39 45 39 32 42 63 41 34 20 29 11 21 47 6 21 22 9 12
60 64 69 78 82 84 88 101 105 110 113 118 122 108 106 113 120 89 50 35 32 53 82 76 68 26 54 51 51 50 56 46 49 44 57 66 31 6 31 18 10 5 4 -5 -1 24 20
64 58 66 79 91 99 97 98 108 106 102 108 100 101 103 92 64 46 37 61 63 102 89 59 50 31 51 33 31 123 66 59 81 59 30 51 37 8 0 -2 -7 4 13 -6 -8 8 25
64 53 64 82 107 121 114 106 101 92 78 81 87 85 92 77 56 38 72 34 49 55 90 102 65 59 68 44 76 220 73 40 55 40 29 59 30 -4 0 11 0 3 5 11 11 13 13
62 52 54 82 100 124 131 127 105 104 80 75 85 96 85 73 4 55 70 45 56 40 64 137 110 83 57 26 98 123 50 43 58 69 62 44 18 16 -6 14 8 -1 16 11 14 35 34
61 61 57 76 87 117 142 147 120 114 91 74 77 93 86 20 60 84 92 71 65 43 52 115 74 50 32 7 65 37 27 18 47 35 36 42 32 28 21 6 1 15 8 -8 -7 19 47
60 61 67 73 76 99 138 155 145 116 98 80 78 87 86 30 36 60 71 85 63 46 51 47 72 -1 44 53 14 118 23 58 37 32 29 21 37 35 32 10 5 -2 4 11 28 45 60
56 59 72 76 74 94 127 145 158 117 97 83 82 70 79 60 60 64 71 53 44 91 86 71 46 52 74 102 57 34 43 45 15 55 84 45 26 35 16 8 20 25 43 43 56 70 88
53 64 69 77 74 89 128 152 162 120 96 85 78 49 54 51 45 56 36 50 126 136 91 105 99 64 59 57 55 57 87 102 53 44 64 44 39 20 19 22 20 43 58 71 91 111 94
48 55 62 76 74 92 136 174 176 126 92 81 59 54 81 52 57 21 6 93 141 111 121 77 70 59 59 30 38 42 34 71 67 33 36 31 19 15 6 9 12 35 38 61 71 82 71
42 48 50 75 79 98 142 187 195 135 84 61 57 52 36 57 24 7 22 139 99 47 47 58 67 82 64 41 42 50 60 35 34 26 31 22 5 2 18 13 8 24 51 29 58 60 57
51 52 54 72 79 98 140 186 209 155 87 46 31 40 42 83 24 6 58 84 66 21 31 40 60 40 47 37 29 15 16 5 2 17 6 20 21 28 17 31 58 55 42 47 45 45 22
64 58 64 73 81 93 130 173 202 187 110 37 47 49 46 54 33 41 59 48 53 34 31 45 31 24 23 14 9 7 12 13 11 10 24 23 36 36 43 56 56 56 69 78 50 45 39
79 64 71 79 79 89 111 144 183 200 138 57 48 73 62 37 72 67 64 58 58 63 61 43 45 30 10 1 13 20 34 25 7 15 26 9 37 30 53 58 56 74 86 80 68 58 113
82 74 73 94 95 92 92 118 174 201 97 47 61 70 76 43 55 95 94 104 91 59 59 36 25 15 15 25 30 26 32 31 29 19 21 24 41 44 74 92 92 113 109 118 127 148 107
81 87 77 96 98 100 94 106 162 176 108 53 74 99 109 80 82 108 91 92 88 83 70 64 44 40 45 47 44 34 31 24 14 24 52 61 79 98 101 123 144 126 124 132 141 160 125
67 84 83 96 104 99 100 113 142 170 115 56 74 63 76 80 114 104 87 84 76 58 52 64 63 44 31 25 33 46 33 21 35 41 59 86 120 148 145 127 131 121 93 106 138 148 158
72 81 86 91 116 105 104 122 143 172 117 57 50 55 90 124 133 118 119 76 56 54 53 45 45 34 30 30 34 37 48 50 51 78 119 117 151 173 163 158 140 96 94 81 30 37 85
82 79 99 90 111 109 111 123 137 161 97 55 51 64 72 133 104 92 61 58 39 53 73 45 38 48 29 10 19 38 57 77 82 116 145 157 177 216 214 170 94 84 98 42 77 86 122
86 91 100 104 105 107 113 119 129 134 95 55 64 74 86 94 89 56 47 56 51 54 48 53 49 54 23 46 58 67 73 83 91 130 136 198 223 232 260 178 179 124 112 120 85 43 79
80 90 108 118 109 110 116 114 131 132 112 65 69 82 81 85 84 85 70 83 101 96 84 65 61 38 45 55 60 73 61 85 135 163 155 136 209 212 223 204 180 81 37 100 131 77 128
89 88 101 115 116 109 123 117 124 141 126 72 86 70 70 72 54 77 94 74 84 87 90 82 73 75 81 79 79 92 86 79 119 152 139 154 178 230 247 210 191 128 125 97 120 141 195
82 78 90 96 100 101 116 123 118 134 137 77 91 85 77 82 68 87 93 70 87 101 80 81 77 92 88 100 114 97 97 152 129 140 145 132 155 179 171 195 153 117 88 123 207 223 210
82 75 68 87 89 93 109 122 120 123 133 91 86 105 84 87 64 68 73 82 96 88 97 54 96 85 121 133 103 98 141 166 206 161 136 167 144 163 208 175 93 151 147 145 181 157 102
87 80 73 69 87 90 101 117 128 135 135 91 99 104 112 100 68 100 111 96 87 47 79 73 83 80 82 137 116 186 186 267 247 238 168 158 144 165 210 217 130 162 142 148 95 75 101

GFSGBSN_con_3kmhel_006.txt.gz
Helicity
33 26 30 24 21 9 8 5 2 19 25 31 37 42 49 57 71 80 89 117 95 104 130 98 130 129 83 36 30 75 107 69 81 65 50 38 19 36 27 20 24 14 -9 10 13 9 21
34 39 34 28 21 21 20 14 22 26 33 42 36 50 66 73 84 91 112 104 99 121 78 95 104 85 53 13 19 42 60 65 48 30 25 25 11 21 28 38 24 16 7 2 -1 -4 1
40 46 34 32 30 29 32 31 39 40 44 52 64 73 83 96 99 115 115 109 103 69 79 84 63 40 3 -2 -2 -7 9 12 26 36 22 38 23 45 39 18 35 3 -18 -12 4 1 5
42 46 46 45 38 47 47 56 61 68 71 68 81 99 103 102 107 108 117 98 62 77 90 68 29 40 4 -22 2 -3 17 -7 3 18 25 33 28 23 35 23 12 -2 3 13 25 21 22
46 62 52 59 61 64 61 73 91 90 72 81 99 107 103 95 101 108 85 63 79 90 87 54 48 49 22 -10 23 24 37 22 5 14 27 14 28 21 8 5 -12 2 6 8 4 33 29
55 65 63 67 70 66 69 81 97 89 95 95 95 105 105 102 98 72 72 79 85 87 65 71 54 32 29 29 32 44 39 31 14 26 17 28 16 4 17 30 29 21 -1 -10 16 32 40
58 62 76 80 72 67 79 84 97 99 101 93 89 95 82 67 67 57 49 84 86 72 51 62 36 49 30 37 60 30 43 35 10 25 15 44 13 40 37 38 22 5 5 25 36 40 49
59 66 85 83 78 90 90 93 105 103 107 99 95 79 76 75 67 49 81 77 65 65 61 86 65 45 54 45 34 82 93 26 29 22 13 8 34 27 30 27 13 4 6 26 30 30 34
56 69 79 88 94 100 93 97 99 99 113 105 102 87 90 45 30 61 43 55 65 97 60 74 69 61 60 87 78 101 92 52 56 49 31 44 47 22 20 42 29 19 27 35 27 25 23
54 65 65 86 93 100 99 108 96 93 101 98 94 71 59 31 53 75 57 60 52 51 43 53 48 40 32 7 51 76 52 18 34 54 58 55 36 31 27 41 42 17 34 19 11 21 50
56 66 57 68 90 106 106 128 100 89 88 91 87 68 36 54 54 67 54 58 37 41 12 34 54 24 23 29 8 62 19 37 51 40 4 41 43 44 49 41 43 59 37 29 30 29 48
57 65 60 73 89 104 118 139 116 94 93 97 93 65 38 69 71 72 59 44 44 35 10 30 9 25 51 97 67 33 40 45 21 62 83 60 37 49 46 19 25 41 27 34 45 59 70
50 62 52 68 85 102 122 146 141 104 92 95 80 63 69 84 93 67 44 64 43 41 58 75 71 58 81 84 85 92 99 90 49 28 48 33 45 21 29 16 6 43 21 42 54 64 114
54 58 50 61 80 104 128 155 154 122 96 92 80 78 93 83 72 55 54 9 33 92 117 85 82 91 80 71 86 61 46 82 95 40 25 23 40 21 10 15 16 39 52 68 70 72 71
63 56 52 56 77 106 134 167 160 132 102 86 98 86 81 95 73 50 6 86 84 74 86 70 67 71 68 57 36 38 79 47 46 42 11 6 29 25 28 26 2 28 52 38 53 49 30
71 55 62 64 76 107 130 163 153 129 92 76 63 59 59 89 53 21 42 86 84 48 47 26 60 33 25 46 20 15 8 18 6 21 -9 14 31 31 40 25 56 47 40 29 49 59 32
81 63 66 70 78 113 119 148 165 132 80 53 63 46 42 55 41 11 60 66 72 49 33 46 29 32 39 3 25 6 -1 6 -3 5 7 4 6 37 25 30 43 54 60 77 76 66 42
74 69 68 74 78 109 107 136 191 155 94 46 64 81 60 64 39 36 57 62 66 51 37 30 42 38 26 26 13 3 15 1 -3 -4 5 6 28 42 61 81 74 93 114 110 89 79 95
58 69 69 75 86 100 108 129 182 168 122 59 76 74 66 57 50 71 64 85 88 58 57 43 33 24 27 21 11 19 15 18 -3 -10 11 33 56 74 96 114 123 131 137 146 127 124 79
51 60 66 79 85 99 107 117 159 159 112 80 84 104 77 50 50 54 71 82 87 82 58 65 54 47 50 39 27 22 25 25 14 17 27 35 88 117 132 136 171 166 114 98 89 152 102
55 59 62 74 92 94 117 121 145 155 108 82 114 88 97 65 56 70 91 66 65 68 65 82 60 25 22 14 21 20 20 26 35 43 54 67 107 133 113 72 93 116 66 60 93 75 96
63 70 69 74 99 91 124 139 152 147 97 84 90 68 77 102 98 83 92 55 52 73 80 59 41 55 31 22 21 27 25 26 45 73 88 90 133 144 145 93 94 80 62 57 39 36 78
64 65 82 80 92 92 123 155 157 168 101 77 69 70 80 121 99 79 72 75 65 80 107 81 59 58 57 57 48 46 48 61 74 75 97 108 151 175 175 94 65 73 26 104 86 103 76
69 62 69 86 94 105 115 148 157 150 116 75 79 77 97 114 107 87 72 85 72 92 68 78 71 63 57 48 46 49 69 68 72 100 97 157 176 196 186 114 119 148 88 69 29 23 69
96 76 74 90 98 111 126 139 155 146 115 77 89 97 81 110 112 100 79 94 108 105 109 79 96 78 38 40 69 89 85 88 90 108 129 100 157 191 183 177 96 17 105 98 107 40 140
106 103 94 93 99 108 128 142 152 157 127 89 95 108 108 83 78 97 98 62 98 108 108 103 96 79 58 76 104 122 114 91 82 90 137 147 137 164 201 188 174 125 120 38 95 110 179
113 114 109 103 104 104 118 139 150 164 156 101 101 102 96 99 87 100 105 91 107 117 98 99 85 89 79 114 125 108 98 79 83 101 128 170 165 149 108 163 122 114 134 120 129 205 167
100 110 118 108 102 103 113 131 146 151 155 120 108 117 105 103 78 87 85 98 106 95 98 87 108 107 136 145 122 95 94 74 90 124 143 156 176 134 127 156 101 143 140 157 170 140 150
98 99 107 114 108 93 99 126 142 151 155 123 109 113 126 109 88 97 102 111 112 87 117 102 130 98 118 149 110 114 116 120 120 139 177 165 175 175 218 195 117 87 113 128 156 171 142

GFSGBSN_con_3kmhel_009.txt.gz
Helicity
75 73 59 41 27 17 15 20 20 18 29 23 27 38 43 48 54 58 65 66 66 71 86 94 148 141 107 69 31 29 88 129 126 81 53 9 -0 -2 8 8 4 51 10 16 -10 -6 23
73 69 58 36 32 25 28 25 20 28 40 37 51 56 61 73 68 72 76 70 67 75 71 107 146 108 64 45 17 42 67 104 42 33 23 34 36 34 27 41 22 13 -5 -9 -6 -9 -1
76 65 50 39 36 33 32 22 31 40 43 61 63 67 71 89 89 82 62 51 63 55 95 120 95 67 78 -14 18 37 36 64 68 70 18 37 40 34 -5 4 10 -4 -7 -22 -8 -7 2
73 55 58 44 50 34 26 25 41 50 57 64 65 74 86 92 91 63 53 59 58 104 121 97 66 43 9 -14 14 23 45 20 29 36 29 37 35 32 56 27 1 16 21 10 19 23 14
68 58 65 58 53 42 43 38 43 45 62 80 96 101 98 92 70 60 59 73 109 122 119 91 54 43 17 -29 34 27 32 47 18 23 33 38 42 13 3 22 9 13 38 -1 46 28 20
66 68 72 76 58 63 49 49 56 61 82 93 104 95 89 77 71 68 78 88 105 105 91 69 76 90 18 24 25 44 31 56 35 15 18 33 20 23 14 17 25 39 2 15 21 68 -7
68 73 82 80 70 78 70 56 57 64 76 95 101 93 74 70 73 67 57 82 90 81 108 70 5 10 2 25 41 22 27 38 36 34 30 15 48 59 84 52 80 77 29 29 74 62 42
68 75 92 78 82 83 85 72 61 68 68 86 95 90 86 74 55 51 90 123 38 69 23 15 10 13 37 47 5 14 76 38 28 24 9 14 45 37 31 34 34 23 19 40 40 40 47
63 71 92 85 77 88 98 82 65 60 65 81 96 107 98 64 29 52 74 49 88 71 35 30 37 34 36 42 33 29 64 27 20 11 21 76 65 29 29 41 57 36 66 61 62 27 7
63 71 83 79 82 95 112 95 78 59 56 69 95 109 89 44 61 38 32 53 58 54 51 25 29 10 34 38 24 53 53 54 36 48 62 51 47 37 34 44 70 34 61 32 18 12 5
65 73 77 78 80 96 109 100 82 69 56 64 95 114 93 97 58 65 21 38 30 74 26 21 24 33 23 41 17 30 50 -10 18 23 3 44 41 41 52 63 58 100 40 24 22 21 41
63 67 70 72 70 91 101 107 88 68 57 65 87 92 46 83 84 50 58 59 48 64 -3 12 22 26 55 67 49 32 27 29 36 43 83 72 40 69 71 39 29 24 15 15 16 40 63
60 66 72 72 60 84 94 110 95 74 60 55 57 52 72 98 59 73 70 52 38 22 9 22 40 43 72 59 69 51 41 58 34 18 30 34 46 35 30 3 5 15 5 37 47 53 60
52 62 75 76 60 82 101 107 104 85 68 53 75 74 76 75 90 81 82 34 30 42 42 55 57 55 59 51 56 33 33 56 82 49 25 12 41 11 3 18 5 16 21 55 59 76 71
48 59 76 79 72 87 109 106 109 95 79 60 84 60 59 87 103 102 51 27 42 6 55 71 57 57 58 42 34 37 78 62 50 56 20 -2 29 28 20 20 -0 27 36 27 38 52 47
47 51 74 78 79 88 109 118 106 95 85 62 58 68 67 103 95 126 44 87 65 88 43 30 53 32 10 38 13 -0 2 29 9 41 17 6 16 16 24 5 20 16 37 17 46 55 55
48 48 75 78 75 86 102 140 105 87 78 87 64 98 71 85 105 93 38 67 50 48 51 38 18 21 39 13 14 8 -5 13 27 17 19 5 2 39 23 20 19 50 44 45 54 89 86
52 43 70 78 73 78 107 149 138 94 76 73 79 136 74 76 92 70 53 33 48 52 27 39 63 44 13 20 15 18 1 32 22 30 -14 -10 12 28 63 88 53 60 95 93 82 100 104
55 43 62 77 71 77 106 159 180 106 51 71 108 57 75 86 87 65 32 56 52 39 54 32 28 32 11 7 9 20 13 23 16 2 3 5 33 32 110 138 131 93 142 121 138 127 73
52 46 56 76 82 77 99 153 212 136 74 86 77 132 82 62 85 13 26 38 66 89 63 54 33 19 16 8 20 7 12 8 8 26 27 30 54 64 74 96 143 152 118 100 94 131 76
53 54 55 73 83 85 95 132 203 175 103 90 112 118 100 53 47 22 26 28 47 68 56 32 35 19 19 10 8 2 16 22 16 30 34 35 60 72 60 62 111 123 81 67 79 86 112
63 52 57 70 84 94 97 121 170 190 112 98 100 83 99 68 60 43 61 29 30 72 45 45 31 45 32 14 5 20 19 17 40 43 50 50 89 85 81 87 110 89 49 32 52 61 52
70 61 61 67 82 98 114 129 147 182 115 92 83 94 87 88 63 62 48 47 47 64 108 56 61 65 109 97 104 99 88 75 76 66 72 69 84 92 92 84 83 130 101 108 88 63 75
81 65 62 67 72 99 121 134 146 169 153 93 88 85 107 109 66 53 54 48 56 70 81 116 87 105 91 76 62 81 88 88 70 79 70 96 94 124 114 90 93 211 79 28 49 33 43
97 84 73 72 82 96 118 139 149 160 169 83 85 100 87 124 99 94 72 90 113 86 74 121 144 105 64 91 94 106 102 108 95 100 95 86 111 118 112 119 93 57 180 131 81 28 72
105 106 97 78 80 92 112 133 145 159 159 95 99 112 96 92 102 78 91 70 103 119 116 128 129 103 91 116 120 126 126 120 121 108 104 124 133 102 164 168 181 193 163 118 52 80 260
120 115 109 99 89 97 108 120 151 165 171 122 100 117 116 115 105 102 102 77 107 70 100 116 114 125 101 133 145 136 134 139 130 118 96 125 123 118 119 188 141 109 134 81 145 173 167
120 119 124 124 113 111 116 122 141 170 177 140 101 116 132 122 103 138 125 103 116 91 105 131 141 143 150 152 138 137 158 137 132 110 102 77 78 113 158 200 136 155 172 217 145 122 163
120 117 120 131 128 125 130 135 140 161 185 150 100 111 140 122 106 125 119 130 165 161 120 72 147 98 106 145 154 161 175 172 160 150 88 66 91 132 205 186 110 114 120 81 182 160 141

GFSGBSN_con_3kmhel_012.txt.gz
Helicity
67 75 83 67 60 35 29 28 28 19 21 30 31 29 26 31 39 51 48 56 65 62 68 87 79 49 -6 -19 11 3 98 133 51 59 106 27 17 -16 -16 19 1 49 33 71 54 17 51
70 88 80 70 46 39 36 36 30 28 20 38 35 37 34 49 60 58 62 66 55 61 79 94 85 65 -10 130 -2 37 93 120 55 37 16 30 28 41 27 13 13 41 12 4 -11 10 7
71 87 75 62 45 40 43 38 31 17 35 48 47 50 50 60 61 56 53 41 54 76 99 95 65 46 51 53 22 36 54 54 65 77 73 51 87 37 26 59 39 6 -8 -15 -19 -9 -4
60 80 74 59 47 45 46 40 37 24 48 69 65 60 61 58 57 45 39 60 86 92 90 76 64 41 61 -13 56 44 41 16 37 48 35 44 62 71 53 23 14 16 32 -17 -7 -43 -5
63 77 66 64 54 47 56 51 65 74 83 80 69 77 64 67 60 81 102 105 109 101 73 51 35 43 62 -16 40 16 59 67 -17 28 35 48 74 19 20 41 20 -18 18 -15 -15 -2 51
62 64 64 66 62 64 56 60 62 60 74 66 67 82 100 96 97 109 98 80 87 85 76 56 66 90 28 9 13 28 15 60 56 39 64 66 45 27 34 15 24 81 6 22 8 95 9
64 57 60 74 69 78 65 55 58 70 76 88 84 96 108 103 102 78 45 38 68 66 108 97 -7 47 -12 9 37 37 25 31 64 65 64 22 55 33 130 71 70 114 111 62 72 101 35
60 58 67 69 77 85 67 73 55 66 83 83 77 80 82 82 76 68 53 131 31 58 36 38 9 7 28 66 22 17 61 64 32 76 11 29 19 46 56 40 45 76 80 33 74 54 29
62 62 67 75 82 78 83 76 71 81 84 73 72 82 74 62 45 56 150 67 97 62 40 38 56 19 45 57 41 16 107 43 46 41 18 54 75 29 61 38 68 31 78 101 84 39 -5
71 64 67 80 86 80 92 74 73 77 79 66 72 85 56 25 61 61 92 78 26 33 75 36 49 11 19 24 15 23 48 63 54 24 52 44 44 36 23 41 64 81 84 43 21 19 -4
70 67 68 76 92 94 94 75 71 70 66 61 69 80 57 55 138 82 36 14 43 38 64 28 8 11 1 33 15 11 23 72 18 14 24 21 33 46 47 69 49 103 36 29 20 16 25
63 65 66 77 90 103 96 82 66 70 60 57 63 64 51 81 95 36 42 31 81 86 25 14 -5 9 18 25 30 14 10 46 34 26 88 61 37 67 60 25 31 29 17 20 0 10 59
63 62 66 71 85 104 98 86 73 73 60 39 36 33 78 131 53 48 79 64 99 55 2 3 21 -7 30 37 37 13 18 44 59 14 12 28 40 26 19 -3 7 20 37 46 47 45 42
65 61 66 68 83 103 101 91 84 78 67 37 38 56 83 61 83 69 83 74 68 42 17 33 40 46 44 30 31 32 19 33 70 94 11 30 24 4 1 14 -10 5 4 34 57 82 67
63 59 66 62 83 98 91 83 99 86 76 45 53 51 51 58 86 88 99 49 27 25 63 44 47 46 38 21 22 50 105 49 65 92 60 22 22 22 16 -1 -2 4 43 12 45 54 56
58 56 62 55 75 89 89 87 101 90 82 61 57 55 35 51 80 105 78 52 38 95 9 25 30 17 20 21 -2 -6 -2 39 27 66 70 -10 17 -8 8 10 7 16 16 22 63 66 76
53 51 57 50 69 82 90 83 107 95 83 44 95 94 50 51 87 88 35 -6 16 -10 80 -20 9 6 36 12 2 7 26 27 53 26 28 54 -2 9 18 7 42 64 86 70 49 87 108
50 49 57 47 62 78 95 88 114 113 95 74 78 143 42 71 91 44 4 68 61 10 34 75 98 40 35 26 45 38 26 49 37 59 -15 2 -1 3 44 54 50 88 102 74 118 110 163
50 47 57 47 53 78 107 115 113 104 64 74 105 43 56 99 109 78 116 87 26 20 24 27 46 59 61 40 38 36 29 43 47 32 1 4 8 -2 105 81 84 107 151 131 209 149 96
53 42 52 50 52 76 114 133 131 83 20 36 71 90 104 69 160 30 45 57 70 84 61 63 46 31 30 17 34 18 21 16 30 31 21 26 29 35 49 56 79 106 104 88 120 265 160
58 50 51 52 52 71 105 148 130 82 52 65 80 55 68 86 120 108 34 38 49 46 32 30 33 25 27 46 24 10 25 1 4 20 36 43 55 47 34 39 71 81 91 92 85 86 122
64 56 56 54 62 64 93 145 156 118 72 76 161 86 84 70 37 63 97 61 32 36 29 32 42 36 40 38 17 2 7 4 28 37 54 57 68 58 40 76 81 69 46 54 65 41 68
69 60 60 60 66 73 83 117 154 152 88 88 61 78 86 112 81 84 69 35 30 118 71 46 55 97 181 183 178 174 155 131 91 66 81 83 85 83 73 65 39 78 106 149 129 101 91
79 68 66 67 63 86 93 102 143 155 121 122 92 85 84 92 78 49 38 56 87 46 65 100 114 174 174 117 137 145 149 123 88 122 108 105 114 104 99 79 98 137 85 64 111 103 41
87 78 83 76 75 91 106 113 138 162 152 74 77 119 76 83 56 82 60 71 152 116 122 221 247 139 61 85 85 89 102 114 119 140 118 96 106 125 116 120 72 14 166 168 149 48 64
95 91 94 91 88 96 108 122 135 160 165 69 81 104 81 79 114 57 67 130 119 166 211 137 174 137 114 125 118 112 111 116 113 137 154 128 129 115 157 135 92 119 243 144 89 119 238
105 101 103 102 101 106 111 121 131 149 160 108 73 101 94 107 115 134 117 102 111 110 110 114 116 135 126 130 141 126 138 152 145 147 128 176 157 138 124 120 54 52 158 109 172 242 164
103 103 107 110 114 118 122 126 131 149 147 129 72 94 113 112 95 183 177 97 135 80 148 95 154 137 151 140 125 123 145 129 181 153 152 158 146 135 125 110 70 170 195 217 227 161 218
113 106 105 114 120 123 124 127 134 152 175 135 84 93 115 107 98 163 166 199 188 220 155 127 119 99 104 119 126 128 152 174 206 201 114 169 145 162 160 130 80 154 221 196 211 209 269

GFSGBSN_con_3kmhel_015.txt.gz
Helicity
51 43 47 58 59 36 33 26 31 37 34 20 6 15 12 36 33 24 13 48 50 56 69 69 33 24 -23 -15 36 13 93 111 33 55 94 88 66 13 126 -14 11 57 55 83 64 96 159
53 39 36 59 56 30 31 24 41 37 27 13 -3 -2 32 19 -4 15 56 60 50 71 88 73 31 29 -34 92 12 9 110 51 87 52 95 77 -5 15 25 75 56 67 95 54 17 64 58
45 40 44 49 36 29 27 27 42 35 23 14 1 21 17 26 38 57 57 59 77 91 97 67 57 32 -0 122 46 48 100 59 77 70 75 67 58 85 55 94 100 48 27 22 10 10 -8
40 38 41 43 31 28 17 34 44 34 7 40 46 33 25 45 52 75 96 99 100 96 85 69 56 5 38 26 34 77 87 94 69 64 68 74 79 141 79 -2 32 5 -13 33 -2 17 -36
28 31 45 37 29 28 27 49 46 42 10 76 59 71 81 76 90 94 93 92 91 90 80 59 43 -0 104 5 33 41 61 171 19 43 34 87 69 53 25 24 -2 -27 10 -18 -3 56 14
23 39 35 36 35 35 42 58 51 49 52 79 78 64 70 77 79 84 70 86 76 96 70 66 57 38 51 28 16 31 62 65 73 51 65 53 30 -12 19 -4 52 22 19 39 92 39 34
4 38 41 40 47 43 61 70 64 73 49 55 94 87 82 84 76 65 57 76 95 78 9 69 45 84 11 5 13 38 28 63 87 48 89 54 24 39 39 54 50 66 67 58 82 83 49
15 41 44 52 46 53 78 87 56 78 67 63 115 118 95 68 58 45 25 135 82 56 91 181 -2 21 40 56 16 38 48 73 64 101 103 21 44 30 12 8 34 48 70 71 27 35 41
35 42 49 61 52 60 89 87 71 85 56 128 139 110 77 44 32 27 102 135 -21 11 56 43 44 26 64 75 76 52 83 105 105 89 31 26 27 25 76 52 115 122 74 104 83 48 5
36 47 50 62 66 69 95 87 82 75 100 118 123 95 46 23 55 53 142 85 -18 53 58 50 55 35 61 21 41 47 65 82 63 47 67 19 30 47 60 48 92 76 70 61 48 43 40
50 44 54 66 75 88 101 101 91 79 98 107 104 58 29 35 70 60 69 31 51 10 51 43 36 7 25 46 5 47 38 110 89 88 63 33 57 92 71 29 43 32 28 18 35 32 58
41 52 62 67 77 98 109 112 90 86 102 109 103 81 21 60 69 64 40 65 -2 38 54 32 9 9 8 14 18 14 37 73 68 75 85 32 25 36 41 37 43 36 75 77 53 73 67
45 57 71 69 81 106 115 118 90 92 98 108 91 55 47 75 44 52 60 33 76 55 13 20 8 -5 11 24 -3 -0 27 85 92 30 4 19 19 -10 23 9 18 25 58 58 79 83 70
52 62 73 70 80 106 111 121 98 96 90 90 64 55 74 41 55 60 47 94 110 18 31 10 8 47 20 36 60 32 5 59 112 71 -25 34 33 27 25 37 5 30 14 36 47 62 28
64 63 68 72 83 96 107 123 113 98 91 84 74 67 49 50 55 65 69 77 92 96 67 31 5 50 43 31 57 48 47 22 71 132 75 21 5 9 16 41 12 -4 27 15 47 18 50
76 66 67 72 84 80 105 119 128 107 92 67 68 46 46 34 44 76 56 88 43 83 62 35 2 -5 5 -8 -4 16 24 61 57 89 74 73 -0 42 26 2 -6 33 25 42 41 55 39
88 68 71 66 83 71 105 115 140 105 71 49 88 70 71 50 67 79 37 59 35 62 101 11 3 27 34 -4 7 17 33 53 78 56 46 78 5 -0 -14 -11 18 39 83 69 67 116 101
88 72 73 65 76 75 105 127 129 99 69 78 93 116 79 76 87 61 43 34 35 5 55 69 99 84 71 73 96 54 46 43 71 92 18 32 -8 1 1 -1 26 55 78 118 127 87 139
81 72 69 65 73 80 107 125 128 100 82 86 88 105 62 98 82 35 97 85 37 17 28 90 126 127 130 77 65 42 53 64 73 51 -13 4 4 15 6 9 6 44 126 177 247 212 135
77 81 70 64 73 83 102 127 124 81 32 38 150 124 131 95 84 70 45 64 98 96 98 126 54 77 95 87 72 52 38 28 43 49 52 51 37 51 56 54 64 69 56 74 229 265 226
69 75 66 64 75 88 101 123 126 75 25 19 112 81 61 102 92 133 70 58 79 86 77 75 55 38 62 59 37 40 43 -5 24 38 63 66 61 57 37 31 43 54 51 49 99 120 215
73 75 69 68 75 85 109 113 123 86 48 58 148 99 90 87 99 104 84 60 74 20 58 26 47 29 86 120 88 -0 10 -18 15 25 47 67 57 68 66 90 72 59 38 31 62 105 98
78 73 70 71 76 90 100 130 120 130 76 94 66 63 92 139 92 110 111 100 68 142 72 71 72 236 282 184 216 251 213 146 85 63 72 80 88 89 69 76 84 114 91 82 96 113 154
82 74 75 75 77 89 93 128 154 138 116 83 105 100 101 140 100 77 64 44 111 144 105 193 194 229 179 180 178 214 255 229 139 166 91 109 122 117 91 111 127 99 102 157 181 203 172
84 71 81 81 85 98 97 114 153 164 163 82 78 84 66 101 83 102 70 114 228 309 266 324 246 139 126 161 132 125 138 143 134 175 150 127 145 144 134 121 96 137 136 133 147 123 181
87 79 81 81 88 103 110 119 145 161 179 76 84 81 63 78 91 105 86 140 225 251 250 262 248 225 146 138 137 109 90 86 93 118 215 194 166 156 165 154 110 132 198 125 138 178 208
93 92 88 85 91 103 116 129 148 161 172 86 87 94 73 105 128 131 156 178 175 221 199 162 151 175 154 153 139 117 113 128 103 107 130 207 186 166 174 159 91 85 157 125 202 140 260
102 101 100 95 95 99 111 126 149 158 163 105 86 94 76 83 95 131 189 199 159 190 154 101 203 163 172 162 131 112 118 107 152 135 118 145 165 147 179 165 103 70 202 221 166 255 263
109 106 106 107 105 107 116 129 150 168 176 123 108 108 98 77 60 89 114 178 209 187 146 124 91 96 120 144 134 131 139 145 156 161 166 201 158 140 187 143 102 111 149 229 284 240 300

GFSGBSN_con_3kmhel_021.txt.gz
Helicity
70 69 78 73 59 47 25 40 30 36 36 22 25 26 17 12 5 9 19 30 23 25 24 48 53 63 35 32 76 35 22 64 64 72 87 75 100 28 23 18 27 17 12 36 17 47 86
85 76 78 63 48 42 25 38 35 35 36 30 12 15 9 2 -2 8 23 25 31 15 36 46 51 52 19 79 50 4 -8 74 71 63 58 68 93 59 55 40 40 11 33 70 92 79 83
89 78 72 51 39 37 31 44 42 41 19 17 8 1 -4 -8 -5 17 25 17 11 16 52 36 55 32 30 100 43 75 32 100 127 82 80 117 73 35 28 30 -1 40 65 84 119 127 120
81 84 61 46 35 35 33 40 48 34 16 10 -3 -10 -8 -7 7 32 21 11 19 61 62 65 44 20 61 57 45 88 55 64 54 73 55 36 27 48 42 70 122 54 52 28 -45 8 64
75 82 60 44 33 35 32 35 49 28 8 4 3 6 -1 2 24 28 28 49 65 61 55 32 9 16 83 80 91 76 22 44 44 17 23 33 24 92 54 62 76 67 8 10 -15 18 26
79 72 55 41 30 27 31 26 41 14 14 14 8 17 -8 -22 -8 6 40 48 40 47 59 27 35 48 51 59 68 64 18 48 55 28 59 61 52 59 95 62 6 15 -3 26 -13 5 54
78 63 49 29 28 15 25 27 18 22 25 23 -26 17 -25 -32 -34 25 23 44 64 69 83 71 34 32 57 62 41 71 40 66 53 64 79 110 64 68 76 54 41 44 73 33 27 47 75
83 61 47 28 29 7 19 16 18 36 28 21 -19 -20 -25 -41 -35 -6 36 110 84 65 89 59 60 62 82 67 69 96 72 40 71 85 88 106 61 64 36 44 40 46 27 43 109 147 125
83 69 56 26 20 7 12 9 38 41 29 1 -12 -22 -15 -27 -14 40 87 137 89 66 78 73 39 38 59 18 52 87 47 61 80 86 68 46 98 63 48 61 46 73 68 87 82 103 140
92 80 57 28 15 11 -0 26 50 42 44 -21 -15 -21 -20 -17 81 98 131 94 79 34 45 72 40 39 27 34 58 78 65 67 88 71 90 70 101 67 70 37 25 87 102 110 118 128 94
103 76 57 33 25 9 7 41 66 52 48 15 -3 -12 4 92 98 115 102 86 36 44 47 62 51 57 43 41 60 108 87 77 71 86 82 62 58 65 60 42 54 58 89 92 98 109 167
99 83 63 57 37 28 37 58 65 71 43 35 70 60 49 100 108 120 102 79 35 60 65 54 49 40 47 63 85 107 114 111 82 148 166 77 44 59 52 63 66 81 93 121 108 107 126
100 78 67 71 41 58 56 85 72 85 56 98 79 34 60 60 98 90 91 47 52 61 46 37 33 27 38 56 89 86 131 161 102 113 118 106 90 90 86 66 71 76 91 94 80 65 81
102 84 74 78 60 63 70 103 87 87 87 101 59 33 117 79 79 74 55 39 78 64 44 44 18 50 35 68 115 156 139 118 136 73 90 64 85 81 85 42 20 51 31 37 22 30 56
104 89 78 83 70 78 76 110 102 89 89 107 79 121 120 96 52 51 17 58 90 62 28 36 65 62 78 92 87 105 108 94 92 95 58 52 58 73 68 53 16 23 51 33 59 50 64
118 90 86 82 80 77 88 117 108 94 91 86 140 134 130 117 52 33 34 114 90 75 21 62 41 36 38 66 95 89 87 95 87 85 56 28 60 57 69 45 55 27 7 8 26 42 60
127 92 88 79 83 73 101 116 112 96 97 104 156 140 144 125 67 34 58 126 95 92 20 43 36 30 27 46 79 78 55 73 83 93 81 55 44 60 55 50 23 25 6 11 16 30 52
130 103 78 90 67 79 103 118 110 108 112 150 142 118 170 126 83 39 51 116 111 93 91 63 32 48 36 57 76 56 39 47 83 69 60 62 43 88 53 66 44 20 19 27 43 31 57
125 98 92 80 71 81 107 119 121 109 119 166 156 149 179 119 45 56 94 95 79 64 57 67 59 47 79 91 61 67 72 64 74 57 56 74 72 97 90 80 64 45 48 61 67 56 54
117 98 88 73 74 85 110 133 127 114 145 170 163 153 201 147 81 40 80 74 69 79 46 77 82 94 106 100 97 47 72 53 66 68 73 83 66 36 11 23 54 59 78 87 101 91 102
115 108 83 84 79 98 127 138 127 119 140 180 183 151 143 119 114 100 102 87 69 56 59 85 99 62 54 65 74 58 53 61 84 86 84 82 50 81 88 90 78 71 77 90 95 115 134
121 107 85 78 92 117 133 132 127 126 139 179 160 150 188 106 139 126 109 89 51 60 59 63 53 70 57 24 17 19 50 57 57 98 103 116 62 104 88 107 100 70 71 63 72 100 93
117 85 77 91 107 131 123 133 129 106 154 163 182 179 152 174 170 152 123 86 32 77 105 70 53 77 87 56 56 71 76 76 53 56 83 93 94 110 78 109 107 70 93 143 135 125 155
101 77 97 99 133 125 135 142 142 90 122 116 135 135 169 176 157 143 146 118 74 78 80 78 94 101 59 72 119 185 245 195 173 156 90 97 137 150 106 145 144 98 137 110 139 131 148
90 95 92 120 129 128 139 162 167 84 67 61 126 105 145 219 164 144 167 160 212 207 153 115 86 70 102 151 113 108 119 108 121 144 143 110 133 162 164 153 151 134 150 197 193 115 147
91 101 120 140 112 136 149 179 195 110 112 71 122 105 110 184 203 169 172 131 156 186 184 136 158 255 162 138 125 96 72 61 73 82 128 175 186 177 175 176 130 102 143 178 220 155 127
114 116 140 116 105 142 158 204 222 204 118 112 122 86 109 150 157 140 146 118 140 183 168 164 160 145 152 144 149 126 111 96 97 88 74 134 162 145 187 168 151 95 186 247 261 96 132
126 131 136 114 102 138 170 225 268 223 140 72 97 103 75 110 166 150 135 134 131 137 144 110 181 136 156 157 137 108 125 97 145 133 102 110 125 140 213 218 166 173 323 204 108 163 109
138 141 128 118 128 126 174 211 256 242 168 103 131 141 119 109 119 143 144 137 110 73 123 136 94 83 98 159 142 137 155 149 167 158 178 171 152 128 138 118 118 67 108 108 164 185 178

GFSGBSN_con_3kmhel_024.txt.gz
Helicity
82 71 63 71 70 66 45 43 32 39 20 31 38 39 56 38 30 21 12 -1 9 13 31 38 31 49 24 20 72 12 7 38 55 49 33 41 54 52 4 -9 39 93 -14 -7 13 41 57
91 79 76 72 79 63 36 39 31 38 17 28 46 34 45 28 22 10 -2 -8 10 20 40 29 32 39 16 68 26 -4 -31 39 35 56 27 49 42 41 15 28 28 -16 11 28 26 103 126
92 83 77 80 74 66 40 34 31 36 27 26 43 34 23 22 12 1 -8 -3 16 24 35 35 23 20 28 71 16 46 47 51 90 119 90 106 57 31 -11 0 25 47 53 81 124 97 98
100 89 84 77 72 70 42 31 33 30 37 26 37 25 11 11 4 -5 -1 9 23 23 39 34 -11 15 47 46 50 82 51 54 88 105 111 47 79 54 29 30 107 57 47 35 57 76 94
105 102 91 75 67 65 39 27 26 30 28 31 30 24 11 5 0 -6 1 21 14 31 48 20 20 41 89 74 77 47 45 66 39 42 42 32 8 32 42 74 100 68 23 41 23 37 29
111 104 92 84 66 58 38 23 23 28 19 24 15 11 1 -6 0 -10 7 24 39 47 53 52 57 52 55 65 88 50 39 35 25 46 49 54 37 73 79 70 20 36 41 39 27 18 82
118 103 91 86 65 50 33 22 19 20 3 12 9 4 7 -5 -7 -6 15 43 63 59 64 60 33 36 53 119 107 51 39 31 27 51 65 75 67 61 56 38 29 40 42 44 24 50 85
132 111 94 85 64 42 27 29 22 5 -8 5 8 4 14 -5 -27 -15 52 82 75 42 73 64 67 50 71 54 79 66 48 68 36 68 77 123 86 64 58 71 72 68 54 36 97 137 88
141 120 98 86 62 37 30 27 28 -6 -26 8 -3 5 9 -9 -14 -22 -14 95 63 85 81 59 39 48 39 13 43 97 65 37 49 72 75 75 88 65 63 92 95 94 74 55 67 126 154
138 125 102 91 61 39 38 34 24 -2 -26 6 -13 0 1 -4 3 -5 73 77 79 68 46 70 48 51 24 19 60 83 89 39 98 80 93 84 72 52 70 44 28 35 53 65 82 75 81
127 128 109 90 68 58 41 38 14 -5 2 -1 -21 -7 2 -23 86 75 81 76 48 57 48 45 36 40 36 37 50 81 74 62 45 66 33 65 60 57 38 34 42 56 73 86 93 106 107
114 125 111 95 74 67 49 44 20 -7 23 12 -34 -15 23 90 78 85 74 66 65 46 63 41 40 31 49 55 72 90 79 95 101 120 156 110 74 64 48 72 65 53 88 121 95 86 102
102 132 108 94 73 72 67 58 31 19 34 41 -14 12 82 62 104 74 68 67 55 28 36 39 37 43 47 68 98 100 134 158 86 70 87 113 78 73 78 75 73 85 104 89 84 106 72
100 131 113 84 76 77 80 73 49 48 56 45 24 77 85 57 71 82 71 65 45 41 39 47 36 64 30 64 125 146 128 116 136 79 86 39 56 75 91 67 50 86 83 78 -11 3 32
263 123 113 81 74 79 88 82 76 71 76 69 86 107 115 88 59 68 56 38 53 43 45 39 90 54 64 74 74 120 139 120 114 95 50 58 66 76 80 66 50 41 56 53 52 46 9
182 100 111 80 79 80 96 87 90 85 83 74 127 119 134 122 63 68 44 59 61 50 44 66 38 54 51 58 87 111 105 104 88 96 69 40 61 80 84 62 85 40 35 37 54 18 29
179 82 105 85 82 84 105 91 96 95 82 77 132 145 168 141 92 64 31 74 91 84 48 44 32 46 64 73 82 93 78 74 83 91 91 60 53 63 65 70 48 54 27 47 28 35 45
231 108 97 93 93 86 103 95 93 96 109 149 146 123 190 145 102 55 35 84 105 95 64 77 55 32 39 88 89 69 38 51 77 82 74 86 45 74 54 55 39 31 31 41 51 38 65
146 111 90 96 100 93 104 106 92 97 93 151 158 153 201 128 49 76 76 108 102 106 69 71 64 21 64 88 62 59 54 65 69 67 47 48 61 92 93 72 65 41 67 80 93 82 67
124 94 87 104 95 96 108 110 98 96 61 132 163 142 206 136 88 25 81 86 84 93 70 69 70 80 93 108 106 44 65 64 59 60 81 82 67 46 12 31 62 71 76 96 105 92 87
109 78 95 97 89 104 109 105 111 84 94 145 170 124 136 110 123 63 99 60 69 64 70 84 102 96 63 64 74 57 52 63 75 70 80 80 58 72 76 83 76 63 64 91 101 123 129
82 80 80 89 90 110 100 112 114 81 134 148 117 107 168 121 172 128 120 68 55 76 69 68 69 78 74 16 -4 -12 41 38 44 90 90 104 60 78 71 106 113 65 52 88 110 144 120
85 74 78 89 101 88 106 109 105 111 155 152 170 148 115 211 190 166 131 115 80 94 97 73 67 62 64 40 46 64 64 91 62 64 97 98 90 92 59 112 116 47 85 161 169 189 188
66 75 79 97 84 98 94 100 99 115 145 141 138 120 137 148 156 136 136 154 105 57 58 89 96 68 40 58 95 151 194 163 155 152 97 88 125 136 93 140 135 110 121 116 155 136 168
77 77 86 74 100 90 95 94 96 93 144 139 130 110 111 131 165 168 147 174 191 188 142 123 114 63 43 110 101 103 111 96 111 123 136 108 118 148 149 138 145 129 123 142 193 117 192
88 91 82 113 101 93 91 101 103 76 107 92 120 102 91 111 148 154 190 185 160 174 168 136 117 147 104 92 108 93 76 68 87 84 106 140 157 154 166 176 148 82 111 138 201 190 173
92 81 99 99 99 109 133 138 100 72 64 49 91 94 89 146 232 143 156 169 152 193 176 131 152 114 114 123 131 111 96 85 85 83 75 127 142 146 204 188 162 91 152 217 239 94 79
78 87 96 95 115 145 187 177 117 67 61 71 104 103 98 127 210 183 175 156 140 154 152 114 222 131 138 147 132 103 118 88 127 118 99 107 116 116 175 210 156 134 234 166 83 85 67
89 101 94 119 136 162 167 173 142 132 167 162 178 104 107 146 145 176 178 152 112 78 118 131 95 93 98 166 141 139 164 166 176 158 169 157 137 143 148 139 113 -2 62 80 135 139 117

GFSGBSN_con_3kmhel_027.txt.gz
Helicity
89 83 88 79 72 72 59 61 59 57 54 37 16 16 24 38 44 51 39 30 16 15 46 49 44 29 -0 9 7 23 41 52 66 30 5 16 33 33 33 -3 15 42 36 -21 -38 -97 2
104 105 102 90 78 74 60 64 60 58 46 40 24 14 33 43 32 31 23 15 18 23 42 46 33 18 11 5 18 18 -20 21 12 41 -10 -1 3 11 31 43 40 -5 11 -0 -40 24 70
91 110 112 99 89 74 73 70 65 59 37 28 22 23 37 40 20 18 12 5 26 18 33 36 27 -5 4 34 29 31 32 39 35 39 46 67 43 39 3 68 43 -14 30 17 45 69 62
107 99 109 110 102 76 79 72 62 48 33 22 29 20 35 18 14 6 6 10 32 26 35 22 9 -16 43 50 46 115 92 63 44 68 59 32 100 62 35 16 58 51 51 46 85 63 47
125 107 114 111 111 83 80 69 62 42 28 26 39 32 25 21 9 7 7 28 37 34 17 8 3 13 92 78 64 40 28 42 16 33 26 13 22 51 46 49 73 79 26 29 82 100 72
156 112 118 124 116 88 80 69 53 43 29 31 33 22 12 3 -0 19 22 26 26 14 18 43 53 56 63 52 52 59 31 23 52 26 30 22 57 50 72 56 -2 12 36 27 21 47 102
283 133 113 123 122 97 73 68 50 43 29 32 26 6 -1 2 10 36 35 41 27 28 34 54 34 42 62 114 55 63 51 28 72 34 42 40 42 46 31 40 24 43 54 52 73 52 82
233 248 126 122 121 103 75 67 49 39 31 34 23 -1 -5 10 14 23 4 23 13 37 64 74 67 21 68 56 85 55 48 51 76 55 71 93 77 77 59 54 58 51 63 63 71 88 61
246 230 116 118 115 109 81 69 51 40 27 34 11 -5 6 11 -3 -4 -30 -5 26 62 101 43 43 41 41 29 49 59 68 73 93 60 91 54 66 64 67 79 96 98 69 33 50 99 96
199 201 153 110 122 108 86 66 55 45 34 31 7 -3 10 18 -5 -1 5 52 37 34 83 44 43 44 24 17 55 94 73 47 88 38 69 66 110 90 76 77 57 84 60 35 40 60 43
137 161 182 116 121 117 100 66 54 51 43 28 -0 -13 9 -15 43 9 57 34 8 79 18 41 41 42 40 21 41 96 132 84 55 69 54 69 66 52 67 55 41 4 61 72 73 85 75
147 123 169 108 119 128 104 71 56 54 39 40 -14 -25 -7 -94 18 67 66 27 57 80 57 46 66 48 57 79 68 90 93 109 79 103 141 74 85 51 36 49 54 14 104 117 101 82 27
131 133 131 81 121 135 101 72 63 61 45 46 -11 -15 15 -2 67 76 48 65 50 44 39 45 41 52 40 53 67 80 100 139 109 126 123 107 87 54 42 32 63 70 96 35 37 73 51
132 76 125 136 139 135 104 75 69 66 60 48 11 -7 23 -39 61 92 85 83 42 47 40 50 44 70 30 45 73 100 98 108 141 93 71 22 23 64 76 50 35 74 74 75 3 14 4
78 44 86 178 149 137 101 84 77 70 69 49 41 36 18 15 76 96 93 53 60 41 35 32 82 64 58 68 62 86 99 92 100 96 27 22 40 74 87 67 67 52 64 67 66 34 11
26 7 -48 167 132 142 103 93 83 73 76 44 98 63 58 71 62 100 65 48 55 36 49 63 62 42 35 50 73 103 110 102 91 89 69 33 47 70 61 73 92 42 61 36 51 8 18
57 41 -36 180 132 137 106 94 84 80 78 52 138 111 121 119 123 102 33 51 51 51 43 61 50 57 64 62 75 100 84 90 90 90 88 71 60 49 54 54 42 56 49 63 46 34 19
3 -35 -52 160 114 126 103 94 90 84 107 142 177 129 188 162 169 98 34 54 47 76 55 62 59 63 66 81 88 84 63 74 67 77 67 77 57 56 68 52 54 48 37 38 39 27 62
-59 -130 -64 245 115 111 100 91 91 83 113 229 209 173 218 151 115 108 80 86 74 101 83 70 64 50 50 69 84 77 65 80 68 58 61 64 74 68 63 57 66 43 53 73 90 79 67
-62 -107 29 186 87 92 87 93 92 92 94 192 219 153 240 144 123 62 83 86 93 100 87 76 77 68 57 73 86 54 77 72 71 75 98 95 72 32 7 30 55 63 70 95 102 90 100
-96 -188 208 292 85 87 72 92 112 106 79 193 214 154 188 142 136 65 97 66 80 79 95 91 85 56 47 57 95 62 64 73 86 69 84 69 31 73 72 75 63 55 53 90 102 135 124
-88 44 318 165 95 62 81 101 129 116 131 191 175 129 180 145 150 87 110 75 85 87 74 69 63 90 83 44 48 17 55 44 43 86 79 82 52 88 75 89 97 48 46 85 94 119 103
-129 279 199 104 65 64 87 109 121 116 213 181 179 158 111 186 168 133 101 90 80 84 88 75 62 107 87 69 76 79 86 115 74 63 94 88 88 91 70 106 107 32 55 150 193 195 181
218 254 99 69 61 78 91 117 120 106 183 198 151 138 112 127 151 110 103 115 112 92 54 88 102 81 54 60 111 169 203 167 156 150 97 85 116 116 94 119 117 96 117 121 99 122 172
146 96 65 59 65 88 100 121 114 82 125 201 161 106 85 92 129 149 121 178 220 212 144 111 109 85 29 123 113 98 95 79 99 131 130 99 106 111 102 107 110 104 108 110 128 112 117
112 64 53 64 88 89 99 109 109 114 117 177 167 112 83 85 108 129 171 197 207 205 175 139 134 129 109 116 109 58 26 47 64 80 106 138 146 130 131 116 87 92 102 108 116 127 92
67 57 75 76 74 86 90 92 105 105 130 165 152 105 70 83 139 141 158 168 205 219 191 156 146 104 104 124 115 87 68 81 60 67 77 119 138 136 171 140 111 64 115 111 161 102 85
83 82 75 80 78 75 84 89 90 81 124 149 125 90 70 96 163 169 153 167 192 196 163 134 204 132 136 141 114 89 95 88 105 95 74 88 106 105 139 155 102 75 108 111 89 66 76
85 91 80 67 77 89 86 77 90 57 76 77 69 72 93 113 139 180 134 149 139 113 151 142 105 104 105 157 119 114 140 137 136 109 104 109 105 114 100 109 95 30 64 84 116 107 115

GFSGBSN_con_3kmhel_033.txt.gz
Helicity
136 146 76 91 94 90 77 67 65 56 59 59 43 46 37 34 37 39 50 61 58 29 19 31 34 40 39 16 15 50 25 56 31 5 1 -10 6 -6 6 -0 -6 3 20 12 32 79 -5
120 135 111 80 98 102 89 77 74 68 63 58 45 49 40 39 37 38 48 56 46 29 23 27 32 34 14 13 30 20 24 46 37 36 9 12 7 20 40 25 -0 5 25 9 5 -15 -18
65 117 122 85 91 99 107 99 86 73 68 58 49 48 43 39 43 41 52 40 34 28 34 19 34 16 9 -9 6 11 -0 2 -5 17 -30 9 33 38 33 53 51 45 -4 43 -27 14 -25
46 67 108 108 75 94 113 114 98 83 75 59 49 45 43 36 33 43 45 26 27 32 32 20 6 -4 6 2 -37 -27 -3 2 -22 -13 32 47 34 78 111 71 75 45 -14 15 9 4 22
52 58 61 95 96 103 103 113 110 89 79 60 50 44 45 36 33 46 40 28 39 23 17 4 -6 -7 16 23 -12 22 13 15 10 -7 -0 16 13 59 41 78 45 27 2 37 40 18 4
41 57 79 65 109 82 104 105 114 94 77 67 56 42 41 37 36 48 51 23 46 7 3 -27 -15 -21 -8 -13 49 22 7 12 13 10 -0 32 39 59 73 40 4 19 36 31 11 31 -10
71 54 67 83 84 121 99 96 99 98 75 65 55 47 43 36 47 64 51 25 21 22 -11 -19 -42 -20 6 51 22 4 14 4 3 25 47 14 54 30 1 39 35 4 4 -8 78 43 -24
72 60 73 65 73 106 84 102 103 104 81 64 54 53 44 43 53 41 24 3 4 39 -32 75 23 -12 59 45 24 18 2 -1 32 44 38 14 38 15 60 8 31 16 -6 31 39 2 -3
97 83 69 77 84 103 89 83 112 111 89 62 59 55 42 62 63 39 2 -29 2 62 -4 6 -13 -15 -8 -9 -25 21 20 4 19 59 -11 37 87 31 34 19 21 18 28 39 7 44 14
139 108 111 80 95 101 105 81 121 109 95 66 65 57 57 84 33 19 5 -22 -11 23 14 50 21 -7 3 -2 9 61 38 26 26 17 48 80 8 23 73 23 12 9 25 18 21 51 46
174 144 109 101 94 100 128 94 103 113 96 75 68 61 78 -6 122 54 76 1 9 5 109 61 34 51 23 -10 37 58 54 31 -16 -11 35 20 -16 1 9 37 24 59 25 9 6 11 68
231 197 125 84 80 108 130 100 74 103 98 83 80 61 73 59 14 112 23 43 3 57 76 63 45 22 14 -6 25 55 49 63 70 -11 8 3 48 65 58 42 48 29 22 10 -0 11 16
266 225 162 118 89 91 120 116 67 98 99 94 90 73 77 45 84 15 33 7 90 51 33 68 38 17 -0 20 24 30 29 35 23 -1 12 2 12 33 24 20 34 9 1 4 12 17 -4
296 237 167 141 79 71 122 126 68 87 107 104 97 76 47 48 77 81 19 54 119 6 9 27 15 6 -3 15 -8 24 35 16 17 45 8 3 18 28 47 24 22 -16 31 5 25 22 15
211 214 173 73 69 63 98 146 58 89 123 123 116 87 72 18 66 128 75 67 37 -14 7 23 15 -4 -3 27 37 11 23 20 10 31 6 7 63 76 55 32 31 -1 -2 54 44 30 20
34 77 174 110 46 76 105 182 76 77 157 136 156 101 30 16 31 107 80 9 -27 -12 -9 10 19 -14 4 17 11 5 16 41 82 79 56 24 44 23 35 16 5 29 67 10 22 30 10
59 55 133 95 102 62 95 202 59 68 182 98 152 184 62 17 88 167 15 4 -61 30 14 23 6 9 16 -7 -2 8 -16 52 49 36 58 36 36 8 22 -23 -6 26 4 33 68 53 38
-17 45 118 77 66 98 81 163 49 75 158 157 193 257 109 89 266 159 -0 -28 -37 7 41 64 88 19 28 24 6 6 11 14 64 63 29 67 37 12 -28 92 52 82 35 23 30 22 34
11 92 52 91 73 60 66 96 11 101 157 249 232 275 140 99 233 82 43 -37 -13 -14 34 48 50 41 26 35 26 24 24 152 93 76 82 69 25 14 18 27 35 27 22 30 42 70 31
19 82 51 106 84 63 30 7 14 161 129 223 268 297 274 225 119 47 25 -29 -33 45 58 40 35 51 39 50 63 54 73 93 101 123 133 111 36 45 17 52 65 28 13 16 24 41 31
46 50 65 86 80 65 59 -86 110 223 103 205 247 266 279 270 130 64 19 11 -31 25 87 48 63 32 38 53 53 68 55 76 83 80 79 84 47 24 39 62 63 52 32 13 -25 -4 -13
61 93 68 75 33 44 44 50 96 271 92 215 326 173 169 145 132 105 19 -30 -36 37 55 52 45 16 13 21 27 23 45 40 46 40 48 61 56 72 49 25 29 23 18 17 -0 -15 -11
27 87 64 69 37 -11 -0 111 121 158 155 224 149 91 156 146 131 140 71 -4 -24 69 115 62 13 45 26 96 121 102 132 114 93 46 38 53 72 49 43 66 49 7 -5 2 7 12 46
48 48 59 53 33 -8 19 108 302 109 156 292 214 220 196 178 163 95 49 15 20 76 76 118 77 58 94 91 122 133 132 118 107 117 69 53 43 72 44 30 24 48 75 82 73 41 33
56 59 65 32 20 -20 -69 386 185 100 62 194 144 219 144 254 114 80 63 67 73 112 76 107 161 115 39 78 94 71 65 64 54 78 74 63 70 65 59 38 49 26 84 68 79 89 191
47 45 36 13 18 -62 -97 214 151 85 20 127 240 157 114 241 147 91 85 75 120 139 121 133 111 132 85 85 84 27 19 21 25 36 82 91 96 78 83 60 32 106 104 77 67 68 216
-1 11 -19 -27 25 35 163 257 180 88 27 79 206 120 81 146 78 111 122 138 90 86 102 118 92 91 96 97 82 47 24 64 18 21 32 77 97 75 69 76 66 142 91 74 89 221 169
-12 -33 78 104 67 219 330 198 140 117 6 180 328 210 154 174 208 152 103 100 140 90 94 80 119 110 108 98 75 54 51 36 44 42 35 44 60 70 97 88 64 116 115 146 182 111 134
26 54 85 332 261 269 253 180 134 38 57 258 310 202 204 174 164 178 246 216 203 158 101 68 83 68 80 95 113 92 81 71 77 36 62 65 75 93 78 105 138 82 114 121 115 105 111

GFSGBSN_con_3kmhel_036.txt.gz
Helicity
90 105 116 119 70 71 74 79 78 70 59 51 47 41 39 39 37 33 39 36 44 43 34 26 20 2 4 5 0 42 30 62 37 9 -3 24 9 0 8 19 -4 8 44 10 92 62 86
60 74 100 104 133 68 66 83 89 79 67 55 51 47 44 40 35 35 34 44 46 37 29 28 11 -2 7 20 0 56 47 47 29 16 25 50 16 16 26 38 13 -8 38 86 53 14 12
44 47 47 79 100 116 73 80 91 91 75 60 53 52 47 44 38 31 35 43 33 28 23 19 5 0 0 11 57 35 28 32 37 30 54 20 39 28 17 46 60 31 28 57 -1 -4 96
43 44 48 55 76 107 75 80 86 95 88 70 57 57 52 47 36 30 32 38 27 22 24 16 -1 -13 -5 40 16 77 24 35 47 27 69 48 63 44 70 89 27 52 30 9 17 28 50
49 45 50 52 62 78 89 70 81 96 93 82 61 53 52 44 36 28 31 30 25 28 22 6 12 -4 5 5 -17 10 15 35 41 17 14 13 16 56 73 107 49 23 45 10 14 5 52
54 54 45 54 71 68 87 56 75 93 98 83 65 52 48 41 38 33 28 27 38 16 20 14 6 -16 13 -2 9 -6 9 -1 12 18 13 3 7 50 54 30 101 27 1 20 -34 42 5
78 54 55 55 70 81 83 92 59 95 101 90 62 52 41 42 42 41 26 30 56 45 14 12 32 -17 -11 -4 29 16 17 11 10 32 46 26 31 35 21 8 5 16 34 -5 8 27 -1
116 88 60 63 73 69 79 95 63 90 105 92 68 55 41 44 45 39 25 36 80 70 12 79 3 -43 51 41 8 17 22 -2 26 20 81 33 13 38 14 47 23 11 24 31 42 11 -21
149 126 104 78 62 74 75 86 99 59 105 96 78 61 50 50 53 50 31 -8 7 26 22 -1 40 -5 23 27 1 10 17 12 50 -3 42 76 94 27 47 20 42 36 7 58 10 34 -6
180 163 151 121 84 68 78 97 96 70 103 106 82 70 57 79 65 36 38 29 -1 -6 61 35 55 -6 -7 -12 4 11 35 39 89 -8 -8 10 99 22 34 36 25 18 114 5 13 22 -6
179 201 170 145 112 87 93 112 120 98 86 132 91 69 70 63 120 65 163 21 19 8 137 57 80 14 2 -2 18 -7 7 13 -1 -38 -25 -70 74 29 25 46 113 -2 27 58 6 -1 10
183 196 185 177 137 121 115 130 135 135 103 156 104 78 83 65 14 92 162 84 17 92 108 55 50 51 -10 9 -8 15 42 -24 43 37 4 16 69 86 151 7 49 26 -20 -14 11 23 158
296 206 202 197 176 150 121 115 150 151 122 163 111 91 100 66 88 63 50 88 136 158 -9 39 50 44 -6 9 -13 -10 5 15 16 -6 10 -3 106 38 -12 -76 -5 -5 -23 15 80 -22 -33
296 345 249 243 209 149 149 122 145 172 149 175 116 111 88 55 149 166 77 129 165 79 -25 15 40 20 4 -1 6 5 0 -7 0 16 -12 -10 69 27 6 -27 62 90 -5 38 19 26 71
191 257 222 305 253 190 157 152 170 178 150 150 158 128 102 48 60 182 128 113 136 45 60 14 16 5 11 -10 10 20 15 -8 -8 17 37 52 90 137 96 36 39 40 29 31 -9 16 -20
77 140 172 281 290 230 184 165 171 194 148 117 202 157 79 51 74 182 150 -5 35 -27 39 58 17 -11 3 -6 47 14 9 5 8 4 112 72 -28 37 -25 28 28 37 50 26 21 20 13
-2 36 88 162 261 259 186 153 159 207 142 80 182 269 45 64 117 208 151 -16 6 -26 -15 -34 -16 6 -34 17 27 -8 -3 13 40 60 102 46 196 -28 47 9 17 9 3 22 36 23 36
11 58 92 48 132 217 199 146 136 206 110 122 295 312 72 168 268 185 21 20 -37 -51 41 -39 -68 -35 -14 24 31 19 42 70 5 34 29 16 52 76 -4 49 58 88 31 -4 55 33 58
49 74 87 63 8 168 147 168 150 171 82 246 424 295 111 159 250 202 135 -1 -38 24 12 -18 -50 43 28 52 40 28 30 162 144 62 70 71 68 44 39 3 1 20 21 37 55 113 60
37 81 76 57 38 92 125 93 120 123 28 237 401 397 237 187 176 166 119 74 10 -37 -33 25 -26 19 32 36 35 33 46 94 121 141 113 118 71 33 4 8 46 47 -6 14 34 100 50
33 67 58 39 19 76 109 89 36 68 -53 179 418 344 300 231 170 150 114 102 45 -10 -37 5 -2 -1 34 64 34 77 40 96 84 121 105 112 40 31 48 58 38 106 72 17 18 22 36
43 54 50 59 61 68 62 82 55 73 -20 168 422 376 195 168 198 212 102 56 9 -6 20 -52 -2 26 12 27 36 40 19 114 60 72 83 81 80 85 83 77 83 29 58 47 29 28 13
29 16 35 52 45 50 62 73 82 78 98 183 284 280 177 187 156 160 94 85 0 22 19 23 23 17 -11 70 172 160 109 102 24 56 40 65 77 86 61 101 102 36 17 -3 2 7 31
7 29 12 34 56 96 91 66 60 94 138 202 201 294 145 157 164 136 110 79 21 -52 62 69 30 26 137 121 152 135 156 136 152 148 56 76 45 115 76 83 46 9 83 79 86 64 73
20 45 83 52 43 45 100 58 63 76 67 121 -39 144 120 146 164 120 65 15 30 15 52 123 152 132 76 120 109 101 104 125 103 94 104 74 98 107 92 60 37 50 67 80 71 122 204
9 15 59 57 63 88 90 94 -1 -3 59 -17 -27 160 211 136 161 83 95 35 29 239 146 328 176 124 145 129 101 71 64 36 54 39 115 114 113 84 70 62 24 72 100 90 81 100 219
38 27 53 56 73 78 63 76 -8 42 123 -187 33 161 97 223 101 48 84 65 90 197 139 261 241 212 209 112 83 61 45 44 72 51 52 91 111 85 90 68 63 150 122 75 86 181 161
54 55 57 61 60 60 55 39 31 163 -86 -95 -41 66 305 112 100 37 52 102 92 79 119 176 239 199 155 99 71 64 69 52 51 21 32 39 51 58 109 71 41 118 106 126 198 145 149
57 52 56 48 34 36 37 93 90 157 -148 -61 69 201 177 71 226 193 250 241 197 140 159 114 120 101 89 82 84 100 89 105 100 55 49 45 49 58 66 75 108 124 181 160 185 149 145

GFSGBSN_con_3kmhel_039.txt.gz
Helicity
56 62 64 97 112 118 89 80 77 61 53 50 48 47 43 38 32 26 28 24 30 29 25 29 16 -1 6 20 25 8 57 75 67 19 -8 7 41 39 41 43 41 5 30 53 -25 31 169
40 36 40 45 88 96 112 77 83 88 70 62 54 53 48 40 32 22 19 30 29 30 22 25 9 -17 15 32 26 59 42 64 32 14 -9 41 58 18 77 67 1 5 40 97 101 178 72
39 39 37 44 52 55 75 94 75 82 87 72 58 51 49 45 34 24 24 23 28 26 18 21 8 -6 14 19 4 17 22 28 34 19 29 131 70 13 4 21 61 83 34 22 82 147 51
46 46 44 42 44 47 61 68 72 76 84 81 67 57 52 48 37 31 28 18 22 18 15 19 9 1 30 20 16 21 0 98 118 103 116 79 28 10 2 60 74 50 45 46 3 173 20
56 53 51 48 49 48 37 54 49 50 77 89 79 64 56 48 38 34 30 14 12 10 25 16 23 15 -3 -38 -9 -32 12 83 119 55 17 18 -16 1 48 88 98 25 79 25 13 106 86
76 61 56 52 56 55 54 47 53 45 50 84 92 74 59 48 43 38 35 21 28 30 31 13 9 -5 -24 -9 -2 32 81 52 20 32 0 -3 -12 10 50 62 65 58 77 58 17 113 138
92 82 71 64 56 56 67 68 70 57 46 63 83 74 59 51 51 45 44 44 91 74 44 59 40 22 -9 7 16 22 3 4 11 43 7 35 25 27 53 25 47 48 59 96 8 -1 196
109 106 96 74 65 61 62 66 72 80 50 54 70 75 57 53 59 42 43 52 67 104 15 61 50 16 30 17 4 -22 -7 -6 18 23 4 27 24 25 29 57 36 32 62 60 84 40 97
110 135 131 107 80 62 67 70 68 71 75 53 73 72 55 60 55 60 66 57 32 73 60 11 25 -20 -24 8 -7 -14 11 13 134 65 -17 -15 51 46 32 19 77 138 7 95 46 15 0
118 115 136 139 113 81 66 77 76 79 80 71 88 77 65 79 78 66 105 62 36 25 89 44 70 -13 -24 -1 -1 -1 -32 31 41 -14 31 -38 -3 35 -1 50 88 45 20 43 -54 2 13
130 121 122 151 169 117 98 85 87 89 96 80 109 90 89 69 101 106 186 267 46 38 127 24 87 -4 8 8 -3 -18 11 -3 73 91 -19 -40 1 -8 21 43 18 -24 31 29 14 37 77
127 146 158 151 151 160 133 100 101 102 115 98 113 115 114 105 39 80 197 268 77 169 92 87 84 71 27 13 -8 25 52 78 74 103 18 25 26 -23 23 24 9 81 19 26 22 10 19
143 170 157 231 163 167 152 124 100 138 137 135 133 148 163 88 63 129 150 97 188 259 55 71 158 70 42 7 -13 -18 52 18 43 21 35 -2 24 30 -24 -9 14 9 6 60 66 51 -48
156 111 200 206 278 159 176 149 141 132 162 157 173 164 136 92 103 156 190 181 201 95 28 54 118 91 75 -37 19 -42 2 24 33 -8 13 3 36 50 33 2 15 20 -20 29 21 -23 -24
96 141 148 200 239 227 160 179 153 134 173 180 195 235 199 63 91 133 225 205 263 94 -24 72 48 115 38 -29 -16 42 -3 -40 14 16 -24 48 62 19 40 101 28 19 33 12 62 47 43
144 129 135 155 222 283 194 160 167 151 198 224 301 266 199 69 147 180 239 218 236 -25 92 55 45 77 64 12 -49 37 54 -15 27 35 116 73 61 70 33 29 62 29 31 72 72 42 20
163 124 113 133 164 223 203 230 161 182 227 248 338 269 112 104 237 229 158 237 76 -31 35 113 37 45 17 7 7 52 36 32 -10 86 194 136 99 46 49 -1 26 37 32 64 63 59 25
213 143 105 45 55 101 172 241 173 195 246 292 417 297 111 232 370 257 158 216 30 33 43 72 45 47 -8 -80 29 70 -25 42 56 90 111 62 87 76 -5 -13 47 58 28 46 84 49 63
137 147 103 -11 17 13 106 220 160 154 232 435 453 364 160 225 236 177 256 152 18 21 131 178 61 25 31 -65 62 -4 80 165 159 156 106 117 103 97 71 38 41 30 41 28 46 114 75
106 113 16 -26 40 89 102 150 116 92 172 372 572 442 308 190 183 179 211 108 21 -4 118 209 65 54 76 79 46 23 113 134 213 168 135 109 112 78 60 48 38 24 31 25 83 132 88
145 15 -73 -20 46 64 68 138 159 81 88 304 568 386 360 259 157 212 153 102 49 33 68 65 19 -1 16 -12 32 72 155 154 141 129 125 119 105 107 70 35 29 2 49 65 24 67 133
89 3 -125 -30 67 59 85 35 172 87 85 234 493 441 389 251 180 295 223 87 69 46 121 108 45 23 79 46 48 71 135 125 106 109 114 144 109 116 74 85 79 83 73 48 92 79 47
127 53 -83 1 43 70 78 109 117 102 118 198 373 349 289 241 127 226 231 100 84 81 104 121 75 35 34 72 89 110 128 161 124 94 104 128 148 172 110 110 85 54 19 60 63 54 33
87 17 28 32 70 74 72 86 137 103 126 214 262 409 249 212 178 116 190 112 104 61 132 102 60 32 151 209 302 323 305 222 222 184 60 101 122 128 91 115 93 15 58 58 75 130 162
31 25 20 34 43 51 64 106 93 80 125 149 31 376 351 141 131 105 130 97 83 19 88 18 111 35 197 282 238 195 231 156 94 101 150 136 137 133 116 97 62 52 101 62 94 163 171
-12 -20 4 15 0 -9 36 70 73 87 119 141 -38 285 38 118 109 132 85 91 68 69 101 192 255 325 310 212 192 183 145 92 103 169 256 236 166 135 120 99 58 43 80 113 115 153 144
-7 13 15 3 7 -37 6 49 65 109 93 118 -86 10 238 104 123 103 136 41 33 113 184 298 224 276 326 269 189 165 132 73 128 110 110 170 227 157 146 92 69 72 89 86 129 117 180
-8 -8 26 21 30 41 48 70 120 111 44 99 -92 93 152 233 117 66 98 32 72 205 270 202 410 243 265 302 222 164 102 97 122 85 63 93 118 110 140 113 58 99 136 115 125 219 192
2 8 37 47 53 43 80 111 100 103 76 3 -152 -37 114 145 112 239 56 211 153 188 371 413 252 184 179 252 212 157 114 133 117 77 60 75 66 56 63 48 59 130 201 260 232 241 232

GFSGBSN_con_3kmhel_042.txt.gz
Helicity
55 63 77 90 89 111 116 113 85 80 77 67 59 53 43 43 42 37 34 31 22 16 13 16 14 16 19 42 61 12 69 78 69 28 4 11 -0 14 60 66 56 47 90 12 41 66 15
49 48 54 49 55 60 98 94 103 82 80 74 64 56 48 49 46 39 33 30 21 17 17 15 18 8 30 73 24 49 61 42 34 17 -8 -17 40 43 111 77 84 46 3 68 79 39 50
49 41 46 47 44 43 54 83 73 81 74 78 69 63 65 55 51 43 37 31 22 13 17 15 21 27 41 59 8 -5 2 -0 32 26 -5 51 102 98 45 66 3 77 59 128 107 3 4
62 56 52 51 51 47 48 54 51 53 56 62 70 66 70 68 62 49 42 35 22 13 20 18 21 26 33 37 28 -26 3 14 24 10 34 82 58 43 9 26 48 72 47 42 -8 -47 -12
80 70 60 59 62 59 52 47 34 42 41 37 57 66 66 68 65 54 48 43 22 18 31 29 36 33 10 -54 -31 -31 44 27 52 73 37 46 -19 -5 41 45 75 63 30 17 -51 18 81
83 77 70 61 65 65 61 53 50 41 36 41 35 54 57 63 60 49 54 56 33 45 60 41 27 37 -9 43 -36 -19 -6 23 -15 19 1 20 7 33 70 28 69 37 71 58 -26 42 51
99 90 87 69 60 63 64 65 65 60 57 41 35 36 42 51 54 51 48 62 70 67 55 47 46 31 35 11 -82 -39 -7 -4 18 63 -5 15 22 91 98 48 53 43 52 27 37 48 101
100 100 93 92 81 61 60 67 78 78 76 59 44 36 27 36 45 46 46 63 56 37 23 56 42 -6 -36 -5 -51 -70 -35 -15 41 13 10 8 -5 27 38 84 27 43 117 80 59 18 172
104 106 108 104 109 87 62 62 79 81 82 78 60 47 36 37 47 54 58 112 95 29 41 41 55 2 -27 43 -8 -51 -29 33 58 78 33 -21 -25 -16 1 33 19 90 17 136 75 6 20
111 111 108 108 107 116 92 69 76 84 88 84 75 58 55 72 49 46 86 152 127 61 79 41 50 9 6 16 -29 -79 -59 22 65 52 12 -27 -13 15 -8 22 26 88 77 206 41 25 36
102 90 122 127 117 122 130 94 77 92 95 95 89 82 75 83 67 73 136 228 126 76 48 30 55 17 53 54 23 -33 -29 34 45 71 16 -11 16 26 8 35 2 15 -3 3 -15 19 32
175 108 109 116 126 126 140 131 92 90 114 111 107 106 120 98 33 107 172 196 107 131 40 67 75 36 102 -40 -12 -35 -28 38 80 106 52 -21 -16 -27 -1 42 -13 -18 4 28 51 36 33
201 202 109 95 148 136 132 142 127 90 129 130 128 139 157 105 46 128 117 153 180 135 115 99 81 73 59 11 -49 -26 -37 -21 40 86 32 47 -4 22 58 16 -56 -0 47 57 48 42 -18
24 171 164 97 88 161 133 143 150 125 132 163 149 169 138 94 105 136 174 171 98 65 50 114 79 78 54 21 -28 7 47 22 1 121 24 40 30 -11 8 -40 26 45 37 44 31 12 7
-2 41 109 168 111 135 214 166 159 148 128 193 198 229 204 51 116 144 226 139 121 149 9 104 105 125 39 2 -8 -21 49 30 12 72 20 41 58 21 47 67 50 49 53 36 93 63 47
38 -13 93 205 139 85 163 288 164 196 141 216 293 273 216 90 169 202 203 98 266 39 119 76 91 102 80 10 12 2 -2 30 36 31 107 41 39 17 53 51 32 20 13 70 81 41 24
108 30 125 185 136 106 82 209 209 172 169 234 306 303 210 173 255 293 131 138 183 -35 76 140 110 74 86 36 8 36 21 26 43 43 136 145 96 63 54 106 48 83 55 63 71 83 29
131 97 153 198 162 104 89 154 252 144 211 262 386 326 184 305 368 257 162 205 213 -37 -9 112 147 126 44 64 41 8 44 47 34 122 82 126 125 95 27 17 63 73 30 64 83 76 99
152 126 60 166 163 98 86 104 223 187 181 359 428 367 134 308 288 165 242 179 111 15 -48 3 138 147 91 58 63 45 61 116 71 126 138 138 143 136 123 87 -20 -11 28 77 108 90 71
138 111 78 114 205 149 95 74 102 123 83 342 539 484 384 308 272 176 203 191 105 -43 -2 90 111 126 155 38 55 75 53 80 135 143 128 167 137 110 100 60 65 67 42 60 100 121 103
121 91 131 182 159 146 85 57 35 92 50 242 519 448 584 360 158 192 140 186 70 -18 -21 36 57 133 152 62 94 121 120 119 180 224 209 180 132 118 99 93 100 112 97 53 62 63 131
136 217 228 177 120 111 110 41 11 63 62 219 501 520 422 354 250 264 217 130 79 -28 41 44 158 189 132 118 82 102 158 136 139 181 151 149 98 134 123 129 98 85 95 85 63 98 76
163 225 184 142 106 89 -53 21 39 87 198 263 343 372 396 332 180 240 194 202 98 21 5 52 114 140 160 148 94 56 87 108 113 139 170 177 178 192 138 178 140 72 84 93 65 23 46
168 204 180 156 119 -111 -42 24 59 50 244 393 194 399 422 230 267 68 189 239 74 46 70 42 51 129 71 56 164 287 383 286 250 208 170 170 205 181 137 183 164 86 96 103 176 203 202
183 188 172 96 -8 -73 8 50 57 45 155 247 138 257 386 233 209 169 79 140 73 34 53 45 39 2 146 201 261 296 312 278 239 244 179 154 186 162 152 137 113 86 102 129 153 175 159
118 114 93 59 -75 -12 3 -9 65 41 108 136 160 163 197 289 141 149 158 81 100 86 58 -10 -30 106 197 182 233 218 208 193 190 207 232 231 211 159 155 134 82 27 109 118 146 156 139
62 61 73 31 43 72 16 4 44 85 58 130 13 57 229 270 188 97 133 130 103 131 102 46 104 193 258 223 217 216 188 155 187 168 204 252 236 194 214 156 95 55 52 136 160 99 153
-2 -14 -17 20 54 56 50 34 39 93 5 127 57 -38 83 345 172 183 130 124 107 121 142 128 230 296 310 275 218 237 193 195 225 172 176 219 242 208 245 204 74 84 163 143 136 203 186
-10 -13 -19 -11 13 40 40 37 70 86 3 89 -111 -77 4 78 108 277 151 261 80 153 138 216 188 233 198 252 260 243 227 256 219 156 179 165 128 124 97 73 118 119 117 170 190 232 193

GFSGBSN_con_3kmhel_045.txt.gz
Helicity
63 66 69 82 87 69 97 113 120 92 92 83 77 72 71 65 60 59 56 42 35 27 18 15 18 24 36 55 31 34 43 64 65 39 13 8 15 28 57 102 69 71 36 20 12 16 42
65 65 54 58 57 56 54 74 100 103 94 88 85 85 83 70 64 59 50 42 36 28 18 15 23 30 55 66 25 35 53 48 10 6 -7 -12 14 2 60 105 69 -11 38 19 0 8 10
72 66 58 50 48 50 51 49 64 84 81 77 80 81 81 79 76 72 49 39 34 28 20 18 29 33 61 58 48 -3 -37 25 25 2 -2 -13 26 67 61 139 13 -1 54 67 11 -11 10
86 77 72 55 50 51 46 48 47 68 59 52 57 65 68 69 77 71 60 47 40 30 23 22 40 38 42 29 -27 -92 -32 -45 20 18 -16 34 30 16 28 75 44 46 31 57 4 -17 -49
101 98 93 81 60 49 54 45 53 48 35 44 31 32 49 62 72 67 61 66 49 30 29 33 50 51 31 -23 -41 -40 10 3 4 21 -2 31 7 26 52 50 71 49 25 35 26 -14 15
80 93 97 93 89 69 55 48 52 57 47 44 27 23 23 37 59 59 63 81 40 42 53 51 62 55 28 70 -12 -91 -61 23 -4 2 -20 11 36 56 69 85 57 60 17 7 -30 1 -10
96 93 100 95 98 84 73 57 51 61 56 50 31 18 21 35 39 55 50 51 73 63 58 57 57 42 58 43 -51 -53 -28 -6 -10 10 12 -8 27 15 99 81 49 50 24 14 -10 -5 11
68 98 98 115 100 107 82 77 71 71 70 66 49 33 22 25 40 38 40 80 59 73 40 30 35 10 -12 15 -35 -51 -29 21 23 19 9 19 4 -4 30 51 77 45 39 46 42 15 1
148 88 89 106 115 103 103 87 85 89 77 75 66 53 35 39 49 38 62 80 53 44 43 16 59 41 24 49 -17 -55 -27 20 35 48 26 50 -1 27 4 7 23 31 33 74 27 47 22
178 173 89 84 106 121 107 114 85 85 96 80 74 72 56 70 52 55 85 66 100 31 79 48 50 42 108 51 -2 -32 -29 31 13 26 51 17 -2 1 12 30 26 42 23 8 60 30 43
117 163 193 96 107 132 123 132 113 82 92 96 92 82 69 75 81 90 117 152 89 69 99 49 78 75 122 97 32 -2 -18 14 46 50 49 -5 -7 9 12 -20 4 50 37 44 14 33 32
86 100 162 185 101 120 146 131 144 109 89 105 107 99 91 90 41 60 111 160 98 160 114 83 71 88 159 37 46 60 3 30 24 75 54 5 10 3 29 10 -17 14 22 85 60 70 40
87 79 85 163 171 115 112 141 147 146 100 111 139 131 111 90 53 82 76 139 187 191 132 111 71 85 91 76 1 79 71 59 63 38 2 24 21 8 20 43 40 19 73 62 64 66 -8
106 83 70 60 139 144 116 124 146 171 137 108 161 172 103 88 94 143 143 167 168 99 123 102 74 120 73 73 24 38 39 35 23 67 44 19 1 -1 22 -22 25 24 30 49 31 22 23
155 111 86 74 51 146 133 104 164 145 184 127 184 217 164 60 90 162 193 188 188 229 89 135 108 153 61 60 44 64 59 -7 39 70 24 -5 24 5 29 15 31 44 39 40 66 61 55
151 145 126 78 33 91 122 115 136 157 193 188 276 264 171 69 126 220 239 150 210 121 132 146 149 111 90 60 59 116 95 6 -12 42 95 37 26 22 40 43 53 40 36 80 102 67 41
185 146 138 112 81 26 124 128 96 163 141 198 310 343 169 157 206 287 213 184 181 66 115 177 228 181 64 90 50 66 71 -74 -12 37 77 107 80 40 72 52 52 90 84 104 79 89 77
198 195 150 131 111 80 68 131 109 198 118 236 408 391 158 330 267 269 156 274 253 16 66 77 129 150 118 30 84 28 11 -37 50 105 72 72 106 64 49 60 39 162 141 104 122 98 105
166 233 186 127 117 85 68 167 124 122 102 423 450 447 97 268 326 163 205 186 203 62 44 18 112 128 152 63 56 80 36 15 38 82 98 109 141 144 109 99 78 127 85 64 127 118 68
146 274 206 144 98 58 216 255 155 88 98 370 609 566 380 295 255 163 198 177 184 69 88 150 66 123 130 148 89 49 46 87 94 50 88 194 129 109 112 92 85 96 35 83 120 123 89
143 258 214 157 117 126 231 185 129 93 68 321 585 479 527 427 169 239 173 189 171 88 66 123 35 79 151 182 153 114 134 151 165 122 141 127 105 109 71 62 93 99 95 116 126 94 120
141 362 239 159 165 187 264 202 124 56 147 266 575 526 502 458 267 250 213 122 82 87 114 63 68 -1 67 135 151 140 107 151 182 199 166 187 163 165 147 156 136 86 86 116 117 126 102
282 347 278 182 142 166 196 152 101 61 128 294 346 450 440 371 197 235 171 189 176 103 98 134 65 30 90 105 123 134 106 76 76 164 195 186 208 193 120 154 140 131 57 98 116 126 112
370 296 258 146 151 154 156 103 74 52 128 330 329 413 486 284 266 122 129 235 182 108 144 66 75 90 47 2 38 160 195 183 225 251 210 221 234 202 138 216 54 132 175 130 147 175 182
357 282 158 134 192 178 108 83 -26 -12 8 26 273 334 481 276 203 160 137 65 163 66 72 67 114 77 82 103 160 199 307 262 246 290 252 214 240 217 192 192 163 142 125 151 170 172 194
329 202 129 173 180 135 130 96 72 12 -85 8 158 216 426 339 88 242 83 103 133 67 89 61 49 -13 126 148 195 209 261 264 273 322 283 318 260 199 204 180 117 90 106 148 155 152 114
160 178 198 118 106 115 100 65 0 -183 -207 21 259 231 191 362 289 93 195 89 66 107 109 71 95 97 106 211 194 197 206 222 248 236 250 295 265 210 265 207 183 127 85 144 199 76 185
139 131 120 107 104 54 5 -15 -103 -175 -91 80 307 161 255 284 241 202 233 162 151 116 129 98 143 175 162 189 146 192 195 223 253 212 208 230 239 225 293 283 164 131 204 183 110 210 194
108 94 83 62 35 71 31 2 -13 1 -11 88 209 146 207 130 176 229 224 257 41 106 145 162 162 113 182 191 175 192 237 299 263 220 220 209 195 178 194 170 162 122 105 150 131 140 135

GFSGBSN_con_3kmhel_048.txt.gz
Helicity
81 72 70 77 89 111 116 95 97 95 110 80 67 63 68 68 71 65 68 64 53 44 32 22 19 16 21 58 40 50 55 83 75 25 7 6 21 22 60 43 54 32 2 -13 36 21 30
80 84 83 70 64 65 76 87 85 86 96 101 66 65 69 68 69 71 72 67 54 42 32 22 19 21 34 65 38 51 45 51 56 16 -11 -2 21 18 30 67 70 31 11 28 44 40 14
74 61 73 90 79 66 64 64 69 76 87 80 65 60 67 73 80 82 81 79 65 39 28 23 21 24 56 53 51 -2 -15 29 37 37 37 13 14 42 2 71 31 24 37 38 20 -4 -38
88 91 70 67 74 75 69 64 60 66 71 70 57 45 50 68 76 83 83 84 70 43 28 27 33 33 47 16 -26 -110 -27 -17 8 -2 1 -0 6 15 11 24 45 31 26 34 -18 -13 -16
95 96 94 91 80 79 77 62 65 61 64 56 53 33 24 58 66 70 80 84 67 39 29 43 49 54 31 14 8 -53 -11 -10 13 4 -2 -8 16 28 36 55 106 64 25 23 30 -19 -17
103 96 111 103 104 85 81 81 64 65 64 56 49 34 36 34 48 46 75 72 51 48 43 38 72 75 34 58 72 9 -64 -31 21 -1 -2 2 44 49 39 67 91 50 24 41 54 3 41
173 162 90 95 109 112 87 88 86 65 75 68 55 45 46 64 63 79 101 116 82 95 84 69 63 50 70 62 21 13 -15 30 24 -7 22 -12 32 29 19 86 97 56 10 -20 -3 6 11
133 175 173 103 88 105 104 96 95 98 86 86 72 66 62 50 42 50 51 132 111 72 57 42 35 37 9 26 38 32 13 49 37 12 -1 -10 3 8 13 49 46 48 35 -1 21 3 -42
98 107 143 159 129 107 105 107 107 112 97 102 80 82 91 73 58 44 90 120 74 58 27 6 65 59 54 78 22 24 38 62 40 35 19 27 15 38 24 32 47 27 43 54 24 33 3
93 111 103 112 144 125 102 118 109 111 104 107 106 87 109 88 67 61 67 87 37 40 36 28 70 35 112 94 56 14 32 73 39 17 34 11 18 40 28 17 35 41 14 32 50 27 16
83 93 99 119 117 157 120 94 127 119 122 98 120 112 127 86 99 75 94 87 60 76 84 55 107 88 115 170 87 60 45 95 46 33 40 7 24 23 31 40 14 18 21 37 35 19 29
108 104 85 68 105 111 168 111 128 139 145 119 115 132 150 105 82 51 75 135 75 184 107 112 69 102 170 132 122 152 97 93 24 59 43 -13 19 20 16 36 9 22 36 69 53 70 27
101 122 115 93 62 111 133 127 122 152 145 141 126 149 163 144 87 47 25 129 185 212 143 104 76 95 116 133 121 128 157 145 95 76 -9 -14 16 44 37 69 24 36 65 46 60 86 5
84 107 137 120 84 78 55 190 103 153 155 178 142 163 184 138 123 157 122 179 179 127 174 99 126 120 92 138 40 106 162 127 61 83 34 16 -30 33 27 40 38 33 48 82 54 53 22
99 67 83 135 128 74 65 73 144 117 170 192 169 222 189 135 104 186 247 202 165 222 88 143 113 162 147 95 122 134 114 119 63 95 52 22 -13 17 22 22 59 58 57 35 86 72 52
95 76 68 94 149 106 96 5 97 106 107 190 278 238 176 142 141 228 259 157 206 182 178 131 158 143 110 117 169 142 151 122 48 60 60 13 -7 32 26 33 51 49 36 74 84 53 44
119 75 56 87 163 144 111 72 34 75 113 143 318 290 194 208 235 261 208 246 158 160 131 166 166 201 131 145 108 135 112 115 71 59 84 95 51 22 53 47 68 78 80 97 82 82 57
139 113 71 71 175 152 133 90 38 123 105 167 421 336 174 326 337 288 183 276 247 102 73 124 149 170 134 110 148 115 119 90 59 75 71 48 53 11 18 50 50 38 44 104 116 63 104
101 115 114 69 220 185 128 128 47 153 156 320 454 408 120 285 373 202 249 199 261 169 76 75 94 136 138 139 167 115 104 60 28 65 61 79 61 21 71 113 96 70 69 126 169 170 91
97 192 125 80 262 211 143 117 73 132 121 296 472 527 412 300 258 209 230 192 155 168 120 121 98 77 137 150 133 90 73 35 46 19 72 148 135 116 59 68 88 91 122 123 144 113 94
78 90 107 117 244 221 170 122 106 171 122 265 437 512 616 511 232 227 184 238 186 130 119 95 60 62 84 142 197 94 79 91 77 63 110 137 78 131 107 76 95 75 83 156 159 116 119
42 46 122 123 270 251 205 126 89 141 79 211 373 514 510 336 312 310 313 162 89 110 158 133 110 32 51 117 170 158 131 97 105 120 119 174 104 143 118 139 125 90 83 79 76 102 103
42 57 96 130 318 265 185 112 149 107 92 232 310 405 477 321 244 279 256 260 249 119 146 114 77 129 121 40 55 84 111 116 74 75 161 178 198 153 110 182 184 101 82 119 123 158 158
63 63 87 209 316 233 150 128 100 94 32 378 334 402 428 346 241 178 189 344 207 165 183 123 105 78 67 12 43 15 30 78 122 134 79 245 253 204 137 213 67 118 177 151 155 156 174
56 58 60 354 324 213 143 154 232 126 95 272 254 364 390 283 206 129 194 142 259 159 119 129 84 94 43 202 129 104 152 189 178 237 193 162 242 210 174 169 149 142 152 171 135 89 126
71 36 166 349 252 163 224 180 92 49 59 202 333 226 424 273 160 134 122 141 160 174 159 79 94 62 161 73 181 134 168 213 183 255 222 216 217 200 188 170 131 68 118 186 203 147 149
7 106 343 293 196 177 253 217 159 132 87 147 214 210 203 303 175 147 117 166 194 161 97 121 149 104 64 144 208 124 168 193 256 236 278 352 326 247 271 198 162 107 156 224 239 117 183
114 310 280 276 153 156 175 102 109 138 121 196 205 155 245 128 211 159 263 208 203 76 146 95 165 138 181 179 181 217 145 204 225 232 298 328 360 313 307 263 151 194 316 305 154 98 189
347 355 179 123 180 149 106 118 133 114 130 94 86 -22 204 62 91 107 110 184 227 186 159 137 130 101 227 234 241 260 222 227 229 252 310 288 252 244 193 162 171 151 175 142 133 111 150